Wind_Speed
15 15 15 13 12 12 13 14 16 18 21 23 24 24 23 22 21 20 18 16 14 13 12 11 10 9 8 6 5 4 3 2 2 2 2 2 2 2 3 3 3 3 3
14 14 14 13 11 10 11 12 15 18 20 22 23 22 23 24 22 20 18 17 16 14 13 12 11 10 8 7 6 5 4 3 3 2 2 2 2 2 3 3 3 3 3
12 12 12 11 10 10 11 11 12 16 20 21 22 23 22 23 22 19 18 17 16 15 14 13 12 11 9 8 7 6 5 5 4 3 3 3 2 3 3 3 3 4 4
11 12 11 11 11 10 10 10 11 14 18 20 21 22 23 22 22 21 20 18 17 16 15 14 13 12 11 9 8 7 6 5 5 4 3 3 3 3 4 4 4 5 6
11 12 11 11 10 10 9 10 12 13 16 19 20 23 23 22 22 21 20 19 18 18 16 15 14 13 12 10 9 7 6 5 5 4 4 4 4 5 5 5 6 6 6
11 12 11 11 9 8 7 8 11 14 17 19 19 22 22 22 22 21 20 20 20 19 18 17 15 14 13 11 10 9 8 7 6 6 6 6 6 6 7 7 7 8 8
11 11 11 10 9 7 6 6 9 13 17 19 20 21 22 22 22 21 21 21 20 19 18 17 17 15 14 12 11 10 9 8 8 8 8 8 9 9 9 10 10 10 11
10 10 10 9 8 7 5 5 8 11 15 18 20 22 22 22 22 21 20 20 20 20 20 19 17 16 15 13 12 11 11 10 10 10 11 11 11 12 12 13 13 13 14
9 8 8 8 7 7 6 4 7 11 14 15 17 19 21 21 21 20 20 20 20 20 20 20 18 17 16 14 14 14 13 13 13 13 13 14 14 14 15 16 16 17 17
9 7 6 7 7 7 6 5 5 10 14 15 17 18 20 21 21 20 21 20 20 20 19 20 19 18 17 16 16 16 16 16 15 16 16 17 17 18 18 19 20 20 20
7 6 6 6 7 6 5 4 5 8 11 14 17 18 18 18 18 18 19 19 20 19 19 19 19 19 18 18 18 18 19 19 19 19 20 20 21 21 21 22 23 24 24
7 6 6 6 7 6 4 4 4 7 9 12 15 16 16 17 17 17 18 19 19 20 20 20 20 20 20 21 21 21 22 22 22 23 23 23 24 25 25 25 26 27 27
8 7 6 6 6 5 4 4 5 7 9 12 14 15 16 16 17 18 18 20 20 21 21 22 22 22 22 22 23 24 25 25 25 26 26 26 27 27 27 28 29 29 30
9 9 8 7 6 5 5 5 6 8 9 11 13 14 16 17 18 19 19 20 20 21 22 23 23 23 23 24 25 26 26 27 28 29 29 29 30 31 31 31 31 32 32
11 10 9 9 8 7 6 7 7 8 9 10 12 14 16 17 18 19 20 20 21 21 22 23 24 25 25 26 27 28 29 30 31 31 32 32 32 33 34 34 34 35 35
13 12 11 11 10 9 9 9 8 8 10 11 12 14 15 17 18 19 20 20 21 22 22 24 25 26 27 27 29 30 31 33 33 34 35 36 35 36 36 37 38 39 39
15 14 14 13 12 11 11 11 11 11 11 12 13 14 15 16 18 19 20 21 22 23 24 25 27 28 29 31 32 33 34 35 35 36 37 38 39 40 40 41 42 42 43
17 16 15 14 13 13 13 13 13 13 13 13 14 15 16 17 18 20 21 22 23 25 27 28 30 31 32 34 35 36 36 37 38 39 40 40 41 41 43 44 44 44 44
19 18 17 16 15 14 15 15 15 16 16 16 16 17 18 19 21 21 23 24 25 27 28 29 30 32 32 33 34 36 36 37 39 39 41 42 42 42 43 45 45 45 45
20 20 19 19 18 18 18 18 18 17 17 17 18 19 20 22 24 24 25 26 28 29 30 31 32 33 34 35 37 38 39 39 39 40 41 42 42 43 45 45 45 45 46
22 21 21 20 20 20 20 20 20 20 20 20 19 20 21 22 23 25 26 27 29 30 32 33 34 35 36 36 38 39 40 41 42 42 42 43 43 44 45 46 46 46 47
24 23 22 22 22 22 22 22 22 22 22 22 22 22 23 24 25 26 27 28 29 31 32 34 35 37 38 39 39 40 42 43 44 44 44 44 45 45 46 47 48 48 49
25 25 25 25 24 24 24 24 24 25 25 24 24 24 25 26 27 27 29 30 30 32 33 34 36 37 38 40 41 42 43 44 45 45 45 46 47 47 47 48 49 50 51
27 27 27 26 26 26 26 26 25 24 24 24 25 26 27 27 28 29 30 31 32 33 34 36 37 38 39 40 41 42 43 44 45 46 47 47 47 48 49 50 51 52 53
29 29 28 27 27 27 27 27 27 26 27 28 28 29 29 30 30 31 32 33 33 34 35 36 37 39 40 41 42 43 44 45 46 47 48 48 49 49 50 50 51 52 52
29 28 29 29 29 29 29 29 28 28 28 29 30 30 31 31 31 32 32 33 34 34 36 37 39 40 41 43 44 45 46 47 47 48 49 50 50 50 51 52 53 53 53
Wind_Direction
308 308 308 305 289 271 262 253 237 228 221 217 214 216 212 212 212 212 211 210 208 207 209 205 205 205 205 205 202 202 204 207 220 236 245 254 265 273 276 280 293 293 293
306 307 309 311 300 278 265 254 234 225 221 217 215 214 210 211 209 209 210 210 207 207 208 206 204 203 203 205 204 202 201 205 219 233 241 251 266 267 276 281 284 293 300
310 311 312 311 306 292 275 251 231 224 220 215 211 210 208 209 208 207 208 209 207 209 207 206 204 203 202 207 210 208 208 212 225 238 242 245 264 278 285 289 285 286 289
314 315 315 313 309 295 276 255 233 222 215 212 208 210 208 208 208 209 209 210 210 210 207 204 204 204 205 208 208 208 210 219 227 230 238 252 267 283 292 291 287 286 286
316 318 319 316 312 299 274 250 233 219 211 209 210 208 208 209 209 209 211 211 212 211 207 206 206 206 207 207 208 213 217 222 229 237 249 259 268 279 289 290 288 286 286
313 316 321 321 315 306 285 248 232 219 211 210 210 206 208 211 212 212 212 213 214 211 210 208 208 209 209 210 214 220 225 231 238 245 255 262 268 276 285 287 288 288 287
307 312 318 324 319 311 290 255 227 216 212 211 209 207 211 212 213 214 212 213 212 212 211 210 211 212 213 217 221 228 233 239 246 252 258 263 268 275 281 285 286 288 288
304 306 312 320 325 319 297 249 220 212 208 209 210 210 211 213 213 211 213 214 213 214 215 215 213 213 218 225 229 235 241 246 252 257 262 266 269 274 279 283 286 288 290
302 300 306 316 318 323 311 289 229 213 208 207 207 207 209 212 213 212 214 213 214 216 218 217 217 219 226 232 237 243 247 251 257 262 266 269 273 275 278 281 284 286 288
302 298 299 308 312 310 303 293 248 218 213 211 210 209 210 213 214 214 214 215 215 216 218 219 222 226 232 237 242 248 251 256 261 265 268 271 274 277 278 280 282 283 284
303 301 301 306 308 305 295 272 233 214 214 214 213 209 209 212 214 216 215 215 217 218 220 224 229 234 239 244 248 251 255 259 263 267 270 272 274 276 278 279 280 281 282
298 296 297 300 301 295 283 255 221 215 216 217 214 210 210 213 216 217 217 220 222 224 227 229 235 239 244 249 252 255 258 261 264 268 271 273 275 277 277 278 279 279 281
289 290 291 293 296 289 273 246 230 227 225 222 217 215 216 219 219 219 221 225 229 231 233 236 240 245 249 252 256 259 261 263 265 268 271 273 274 276 277 278 279 280 280
279 282 281 278 280 284 271 254 244 239 232 228 225 222 223 224 223 225 227 231 234 237 238 242 246 249 252 255 259 261 263 265 266 268 271 273 273 275 277 278 280 281 281
271 273 274 269 266 268 266 259 253 246 237 232 231 231 229 229 231 233 235 238 241 242 244 247 250 252 257 260 263 264 266 267 268 269 271 273 275 275 277 278 279 280 280
264 265 267 266 262 259 258 257 255 251 244 240 240 239 237 237 239 241 243 245 247 250 252 252 254 258 261 263 265 266 269 271 270 271 273 274 276 277 278 278 278 279 280
257 260 262 262 260 256 252 254 254 256 254 250 248 248 247 245 245 247 250 252 254 256 259 260 261 263 265 266 268 269 270 272 273 274 275 276 276 278 278 278 278 279 279
254 258 259 257 257 256 253 253 255 258 259 256 252 249 250 251 253 255 256 258 259 260 262 264 266 268 269 270 271 272 273 274 275 275 276 278 279 279 279 280 280 279 279
251 253 255 255 254 254 255 254 256 259 260 260 261 258 254 254 257 260 262 264 264 265 265 267 268 271 272 272 273 274 275 276 277 278 278 278 279 280 282 281 280 280 279
249 250 252 253 254 255 255 256 256 259 259 261 262 263 261 260 261 264 266 266 266 267 268 269 271 272 273 274 276 277 277 277 278 279 280 281 281 281 281 281 280 279 279
245 248 250 251 254 256 256 257 259 259 260 262 264 265 264 264 266 268 269 269 269 270 270 272 272 273 275 276 277 278 279 281 281 282 282 283 283 283 283 283 281 280 280
242 245 248 250 254 255 256 258 259 260 261 263 264 266 266 267 269 271 272 273 275 275 276 276 276 277 277 278 279 281 282 283 283 283 284 284 283 283 283 282 282 281 280
239 242 246 250 253 255 257 257 257 259 261 263 265 267 269 269 271 273 275 276 277 277 278 278 279 280 280 281 282 283 283 284 285 284 284 283 284 283 283 282 282 282 281
239 242 245 250 252 254 255 254 255 258 262 264 267 269 271 272 274 275 276 277 278 279 279 280 280 281 282 283 284 285 286 286 285 284 284 284 284 284 283 283 283 282 282
239 241 244 248 251 253 254 254 256 259 263 265 268 270 271 272 275 276 278 279 280 281 281 282 282 283 283 284 284 284 284 284 285 285 285 284 285 285 285 285 284 284 283
240 243 245 248 250 253 256 257 258 260 263 266 268 270 272 275 277 280 280 280 281 282 283 283 283 284 284 284 285 285 285 285 285 285 286 286 286 286 286 286 286 286 286
Height
5854 5852 5849 5847 5845 5844 5843 5843 5844 5846 5849 5851 5855 5859 5862 5865 5868 5871 5874 5876 5879 5881 5884 5885 5887 5888 5890 5891 5891 5892 5892 5892 5892 5892 5892 5892 5892 5892 5892 5892 5892 5891 5891
5851 5849 5846 5844 5842 5840 5840 5840 5841 5842 5845 5848 5851 5855 5858 5862 5865 5868 5871 5874 5877 5879 5882 5884 5885 5887 5888 5889 5890 5891 5891 5891 5892 5892 5892 5892 5893 5892 5892 5892 5891 5891 5891
5848 5846 5844 5842 5839 5838 5837 5836 5837 5839 5841 5844 5848 5852 5856 5860 5863 5866 5869 5872 5875 5877 5879 5882 5884 5885 5887 5888 5889 5890 5890 5891 5891 5891 5891 5891 5892 5891 5891 5891 5891 5890 5890
5846 5844 5842 5840 5837 5836 5834 5833 5834 5836 5838 5841 5845 5849 5854 5857 5861 5864 5867 5870 5873 5875 5878 5880 5882 5884 5885 5887 5888 5889 5889 5890 5890 5890 5890 5891 5891 5891 5891 5890 5890 5889 5889
5843 5841 5839 5837 5835 5833 5832 5831 5832 5833 5836 5839 5842 5847 5851 5855 5858 5861 5864 5867 5870 5873 5875 5878 5880 5882 5883 5885 5886 5887 5888 5888 5889 5889 5889 5889 5889 5889 5889 5889 5889 5888 5888
5841 5839 5837 5835 5833 5831 5829 5828 5829 5831 5834 5837 5840 5844 5848 5852 5855 5859 5862 5865 5868 5870 5873 5875 5878 5880 5881 5883 5885 5886 5886 5887 5888 5888 5888 5888 5888 5888 5888 5887 5887 5886 5886
5838 5836 5835 5833 5831 5829 5827 5827 5827 5829 5832 5835 5838 5842 5845 5849 5852 5855 5859 5862 5865 5868 5871 5873 5875 5877 5879 5881 5882 5884 5884 5885 5886 5886 5886 5886 5886 5886 5886 5885 5885 5884 5883
5836 5834 5833 5831 5830 5828 5827 5826 5826 5827 5830 5832 5835 5839 5843 5846 5849 5853 5856 5859 5862 5865 5868 5870 5873 5875 5877 5878 5880 5881 5882 5883 5883 5884 5884 5884 5884 5883 5883 5883 5882 5882 5881
5833 5832 5831 5830 5829 5828 5826 5825 5825 5826 5828 5830 5833 5836 5840 5844 5847 5850 5853 5856 5859 5862 5865 5867 5870 5872 5874 5876 5877 5878 5879 5880 5880 5881 5881 5881 5881 5880 5880 5879 5879 5879 5878
5831 5830 5829 5828 5828 5827 5826 5824 5824 5825 5827 5830 5832 5835 5838 5842 5845 5848 5850 5853 5856 5859 5861 5864 5867 5869 5871 5872 5874 5875 5876 5876 5877 5877 5877 5877 5877 5876 5876 5875 5875 5874 5873
5829 5828 5827 5827 5826 5825 5824 5824 5824 5825 5827 5829 5831 5834 5837 5840 5842 5845 5848 5850 5853 5856 5859 5861 5864 5866 5867 5869 5870 5871 5871 5872 5872 5873 5873 5872 5872 5871 5871 5870 5869 5869 5868
5827 5826 5826 5826 5825 5824 5824 5824 5824 5825 5826 5828 5829 5832 5835 5838 5840 5843 5845 5848 5850 5853 5855 5858 5860 5862 5863 5864 5865 5866 5867 5867 5867 5867 5867 5867 5867 5866 5865 5864 5863 5862 5861
5825 5825 5825 5824 5824 5823 5824 5824 5824 5825 5826 5827 5829 5831 5833 5836 5838 5840 5842 5845 5847 5849 5852 5854 5856 5857 5858 5859 5860 5861 5861 5862 5861 5861 5861 5861 5860 5859 5859 5858 5857 5855 5854
5823 5823 5823 5822 5822 5823 5823 5823 5824 5824 5825 5826 5828 5829 5831 5833 5836 5838 5840 5842 5844 5846 5848 5849 5851 5852 5853 5854 5854 5855 5855 5855 5855 5854 5854 5853 5853 5852 5851 5850 5849 5848 5846
5821 5821 5821 5821 5821 5821 5822 5822 5822 5823 5824 5825 5826 5828 5829 5831 5833 5835 5836 5838 5840 5841 5843 5844 5846 5847 5847 5848 5848 5848 5848 5848 5847 5847 5846 5846 5845 5844 5843 5842 5841 5839 5838
5818 5818 5818 5818 5819 5819 5820 5820 5821 5821 5822 5823 5824 5825 5826 5828 5830 5831 5833 5834 5836 5837 5838 5839 5840 5841 5841 5842 5841 5841 5841 5840 5840 5839 5838 5837 5837 5835 5834 5833 5831 5830 5828
5814 5815 5815 5815 5816 5817 5817 5818 5819 5819 5820 5821 5821 5822 5824 5825 5826 5828 5829 5830 5831 5832 5833 5834 5834 5834 5835 5834 5834 5833 5832 5832 5831 5830 5829 5827 5827 5826 5824 5822 5820 5819 5817
5810 5810 5811 5812 5813 5813 5814 5815 5816 5816 5817 5818 5818 5819 5820 5822 5823 5824 5825 5826 5826 5827 5827 5827 5827 5827 5827 5826 5825 5824 5824 5823 5822 5820 5819 5817 5816 5814 5813 5811 5809 5807 5805
5805 5805 5807 5808 5809 5810 5810 5811 5812 5813 5813 5814 5814 5815 5816 5817 5818 5819 5819 5820 5820 5820 5820 5820 5820 5819 5819 5818 5817 5815 5814 5813 5812 5810 5808 5807 5805 5803 5801 5798 5797 5795 5793
5799 5800 5802 5803 5804 5805 5806 5807 5807 5808 5809 5810 5810 5810 5811 5812 5812 5813 5813 5813 5813 5813 5812 5812 5812 5811 5810 5809 5808 5806 5804 5803 5801 5799 5797 5795 5793 5791 5788 5786 5783 5782 5780
5794 5795 5797 5798 5799 5800 5801 5802 5802 5803 5804 5805 5805 5805 5806 5806 5806 5806 5806 5806 5805 5805 5804 5803 5803 5802 5800 5799 5797 5796 5794 5792 5790 5788 5786 5783 5781 5778 5775 5773 5771 5769 5766
5788 5789 5791 5792 5793 5794 5795 5796 5797 5797 5798 5798 5799 5799 5799 5799 5799 5799 5798 5798 5797 5796 5795 5794 5793 5792 5790 5788 5786 5785 5783 5780 5778 5776 5773 5771 5768 5765 5762 5760 5757 5755 5752
5781 5783 5785 5786 5787 5788 5789 5790 5790 5791 5792 5792 5792 5793 5792 5792 5791 5791 5790 5790 5789 5788 5786 5785 5783 5781 5780 5778 5776 5774 5771 5768 5766 5763 5760 5757 5754 5752 5749 5746 5743 5740 5737
5775 5776 5778 5779 5781 5782 5782 5783 5783 5784 5785 5785 5786 5786 5785 5785 5784 5783 5782 5781 5780 5778 5777 5775 5773 5771 5769 5767 5764 5762 5759 5756 5753 5750 5747 5744 5741 5738 5734 5731 5728 5724 5721
5767 5769 5770 5772 5774 5774 5775 5776 5776 5777 5778 5778 5778 5778 5777 5776 5776 5775 5773 5772 5770 5769 5767 5765 5763 5761 5758 5756 5753 5750 5747 5744 5740 5737 5734 5730 5727 5723 5720 5716 5712 5708 5705
5760 5761 5763 5764 5766 5767 5768 5768 5769 5769 5770 5770 5770 5770 5769 5768 5767 5765 5764 5762 5761 5759 5757 5755 5752 5749 5747 5744 5741 5738 5734 5730 5726 5723 5719 5716 5712 5708 5704 5700 5696 5692 5688